• In Kazakhstan
  • List of Countries
  • For 7 days
  • Water Temperature
  • Satellite Maps
  • Weather Map
  • News
  • Weather Widgets
  • user-avatar
    Login

    Hourly Weather Marmaris

    Today, 19 August, Saturday

    Time Temperature Precipitation Wind Pressure Humidity
    00:00 +28°C° 0 mm 1 mps 753 mmHg 71%
    01:00 +28°C° 0 mm 1 mps 753 mmHg 70%
    02:00 +26°C° 0 mm 0 mps 753 mmHg 70%
    03:00 +26°C° 0 mm 0 mps 753 mmHg 70%
    04:00 +26°C° 0 mm 0 mps 753 mmHg 70%
    05:00 +25°C° 0 mm 0 mps 753 mmHg 70%
    06:00 +27°C° 0 mm 0 mps 753 mmHg 64%
    07:00 +28°C° 0 mm 0 mps 753 mmHg 58%
    08:00 +30°C° 0 mm 0 mps 753 mmHg 52%
    09:00 +33°C° 0 mm 1 mps 753 mmHg 48%
    10:00 +35°C° 0 mm 1 mps 753 mmHg 44%
    11:00 +37°C° 0 mm 2 mps 753 mmHg 40%
    12:00 +37°C° 0.2 mm 2 mps 753 mmHg 41%
    13:00 +37°C° 0.2 mm 2 mps 753 mmHg 43%
    14:00 +37°C° 0.2 mm 3 mps 753 mmHg 44%
    15:00 +36°C° 0.3 mm 3 mps 753 mmHg 47%
    16:00 +35°C° 0.3 mm 2 mps 753 mmHg 49%
    17:00 +35°C° 0.3 mm 2 mps 753 mmHg 52%
    18:00 +32°C° 0.1 mm 2 mps 753 mmHg 58%
    19:00 +31°C° 0.1 mm 2 mps 753 mmHg 65%
    20:00 +29°C° 0.1 mm 1 mps 753 mmHg 71%
    21:00 +29°C° 0.1 mm 1 mps 753 mmHg 71%
    22:00 +28°C° 0.1 mm 1 mps 754 mmHg 72%
    23:00 +28°C° 0.1 mm 1 mps 754 mmHg 72%

    Tomorrow, 20 August, Sunday

    Time Temperature Precipitation Wind Pressure Humidity
    00:00 +28°C° 0 mm 1 mps 754 mmHg 72%
    01:00 +28°C° 0 mm 1 mps 753 mmHg 71%
    02:00 +28°C° 0 mm 1 mps 753 mmHg 70%
    03:00 +28°C° 0 mm 1 mps 753 mmHg 69%
    04:00 +27°C° 0 mm 1 mps 753 mmHg 68%
    05:00 +27°C° 0 mm 1 mps 753 mmHg 67%
    06:00 +29°C° 0 mm 1 mps 753 mmHg 61%
    07:00 +31°C° 0 mm 1 mps 753 mmHg 55%
    08:00 +30°C° 0 mm 0 mps 753 mmHg 48%
    09:00 +34°C° 0 mm 1 mps 753 mmHg 45%
    10:00 +35°C° 0 mm 1 mps 753 mmHg 41%
    11:00 +37°C° 0 mm 2 mps 753 mmHg 37%
    12:00 +37°C° 0.2 mm 2 mps 752 mmHg 40%
    13:00 +37°C° 0.2 mm 2 mps 752 mmHg 42%
    14:00 +37°C° 0.2 mm 3 mps 752 mmHg 44%
    15:00 +36°C° 0.4 mm 3 mps 752 mmHg 47%
    16:00 +35°C° 0.4 mm 2 mps 752 mmHg 50%
    17:00 +34°C° 0.4 mm 2 mps 751 mmHg 53%
    18:00 +32°C° 0.3 mm 2 mps 752 mmHg 58%
    19:00 +30°C° 0.3 mm 1 mps 752 mmHg 64%
    20:00 +29°C° 0.3 mm 1 mps 752 mmHg 69%
    21:00 +28°C° 0.1 mm 1 mps 752 mmHg 71%
    22:00 +28°C° 0.1 mm 1 mps 753 mmHg 74%
    23:00 +27°C° 0.1 mm 1 mps 753 mmHg 76%

    Day after tomorrow, 21 August, Monday

    Time Temperature Precipitation Wind Pressure Humidity
    00:00 +27°C° 0 mm 1 mps 753 mmHg 76%
    01:00 +27°C° 0 mm 1 mps 752 mmHg 77%
    02:00 +26°C° 0 mm 1 mps 752 mmHg 77%
    03:00 +26°C° 0 mm 1 mps 752 mmHg 76%
    04:00 +26°C° 0 mm 1 mps 752 mmHg 76%
    05:00 +26°C° 0 mm 2 mps 752 mmHg 75%
    06:00 +27°C° 0 mm 2 mps 752 mmHg 69%
    07:00 +29°C° 0 mm 1 mps 752 mmHg 62%
    08:00 +31°C° 0 mm 1 mps 752 mmHg 56%
    09:00 +32°C° 0 mm 2 mps 752 mmHg 51%
    10:00 +34°C° 0 mm 2 mps 752 mmHg 47%
    11:00 +35°C° 0 mm 2 mps 752 mmHg 42%
    12:00 +36°C° 0 mm 3 mps 752 mmHg 41%
    13:00 +36°C° 0 mm 3 mps 752 mmHg 39%
    14:00 +37°C° 0 mm 3 mps 752 mmHg 38%
    15:00 +36°C° 0.1 mm 3 mps 752 mmHg 42%
    16:00 +35°C° 0.1 mm 3 mps 751 mmHg 45%
    17:00 +34°C° 0.1 mm 3 mps 751 mmHg 48%
    18:00 +31°C° 0.1 mm 2 mps 752 mmHg 56%
    19:00 +29°C° 0.1 mm 2 mps 752 mmHg 63%
    20:00 +28°C° 0.1 mm 2 mps 752 mmHg 70%
    21:00 +27°C° 0 mm 2 mps 753 mmHg 71%
    22:00 +27°C° 0 mm 2 mps 753 mmHg 72%
    23:00 +27°C° 0 mm 2 mps 753 mmHg 73%

    22 August, Tuesday

    Time Temperature Precipitation Wind Pressure Humidity
    00:00 +26°C° 0 mm 2 mps 753 mmHg 72%
    01:00 +26°C° 0 mm 2 mps 753 mmHg 71%
    02:00 +26°C° 0 mm 2 mps 753 mmHg 71%
    03:00 +26°C° 0 mm 2 mps 753 mmHg 70%
    04:00 +26°C° 0 mm 2 mps 753 mmHg 69%
    05:00 +25°C° 0 mm 3 mps 753 mmHg 68%
    06:00 +27°C° 0 mm 3 mps 753 mmHg 61%
    07:00 +29°C° 0 mm 2 mps 753 mmHg 54%
    08:00 +31°C° 0 mm 2 mps 753 mmHg 47%
    09:00 +34°C° 0 mm 3 mps 753 mmHg 41%
    10:00 +36°C° 0 mm 3 mps 753 mmHg 34%
    11:00 +38°C° 0 mm 3 mps 753 mmHg 28%
    12:00 +38°C° 0 mm 3 mps 753 mmHg 26%
    13:00 +38°C° 0 mm 4 mps 753 mmHg 24%
    14:00 +40°C° 0 mm 4 mps 752 mmHg 22%
    15:00 +39°C° 0 mm 5 mps 752 mmHg 23%
    16:00 +39°C° 0 mm 5 mps 752 mmHg 24%
    17:00 +37°C° 0 mm 5 mps 752 mmHg 25%
    18:00 +35°C° 0 mm 4 mps 752 mmHg 31%
    19:00 +33°C° 0 mm 4 mps 752 mmHg 37%
    20:00 +29°C° 0 mm 4 mps 753 mmHg 44%
    21:00 +29°C° 0 mm 4 mps 753 mmHg 44%
    22:00 +28°C° 0 mm 4 mps 753 mmHg 44%
    23:00 +28°C° 0 mm 4 mps 753 mmHg 45%

    23 August, Wednesday

    Time Temperature Precipitation Wind Pressure Humidity
    00:00 +27°C° 0 mm 4 mps 753 mmHg 47%
    01:00 +27°C° 0 mm 4 mps 753 mmHg 49%
    02:00 +27°C° 0 mm 4 mps 753 mmHg 51%
    03:00 +26°C° 0 mm 4 mps 752 mmHg 55%
    04:00 +26°C° 0 mm 4 mps 752 mmHg 58%
    05:00 +26°C° 0 mm 4 mps 752 mmHg 62%
    06:00 +27°C° 0 mm 4 mps 753 mmHg 57%
    07:00 +29°C° 0 mm 3 mps 753 mmHg 52%
    08:00 +31°C° 0 mm 3 mps 753 mmHg 48%
    09:00 +34°C° 0 mm 3 mps 753 mmHg 41%
    10:00 +36°C° 0 mm 3 mps 753 mmHg 35%
    11:00 +38°C° 0 mm 3 mps 753 mmHg 29%
    12:00 +39°C° 0 mm 3 mps 753 mmHg 27%
    13:00 +40°C° 0 mm 4 mps 752 mmHg 26%
    14:00 +41°C° 0 mm 4 mps 752 mmHg 24%
    15:00 +40°C° 0 mm 4 mps 752 mmHg 26%
    16:00 +38°C° 0 mm 4 mps 752 mmHg 27%
    17:00 +38°C° 0 mm 4 mps 752 mmHg 29%
    18:00 +35°C° 0 mm 3 mps 752 mmHg 35%
    19:00 +32°C° 0 mm 2 mps 752 mmHg 40%
    20:00 +30°C° 0 mm 2 mps 753 mmHg 46%
    21:00 +29°C° 0 mm 2 mps 753 mmHg 46%
    22:00 +29°C° 0 mm 2 mps 753 mmHg 45%
    23:00 +28°C° 0 mm 2 mps 753 mmHg 45%

    24 August, Thursday

    Time Temperature Precipitation Wind Pressure Humidity
    00:00 +28°C° 0 mm 2 mps 753 mmHg 43%
    01:00 +28°C° 0 mm 2 mps 753 mmHg 42%
    02:00 +27°C° 0 mm 2 mps 752 mmHg 41%
    03:00 +27°C° 0 mm 2 mps 752 mmHg 41%
    04:00 +27°C° 0 mm 3 mps 752 mmHg 41%
    05:00 +26°C° 0 mm 3 mps 752 mmHg 41%
    06:00 +28°C° 0 mm 2 mps 752 mmHg 38%
    07:00 +30°C° 0 mm 2 mps 753 mmHg 35%
    08:00 +32°C° 0 mm 2 mps 753 mmHg 31%
    09:00 +35°C° 0 mm 2 mps 753 mmHg 28%
    10:00 +37°C° 0 mm 3 mps 753 mmHg 25%
    11:00 +39°C° 0 mm 3 mps 753 mmHg 22%
    12:00 +40°C° 0 mm 3 mps 753 mmHg 21%
    13:00 +40°C° 0 mm 3 mps 753 mmHg 20%
    14:00 +42°C° 0 mm 4 mps 753 mmHg 19%
    15:00 +41°C° 0 mm 4 mps 752 mmHg 20%
    16:00 +40°C° 0 mm 4 mps 752 mmHg 22%
    17:00 +39°C° 0 mm 3 mps 752 mmHg 23%
    18:00 +36°C° 0 mm 3 mps 752 mmHg 29%
    19:00 +34°C° 0 mm 2 mps 753 mmHg 35%
    20:00 +30°C° 0 mm 2 mps 753 mmHg 41%
    21:00 +30°C° 0 mm 2 mps 753 mmHg 40%
    22:00 +30°C° 0 mm 2 mps 753 mmHg 40%
    23:00 +29°C° 0 mm 2 mps 753 mmHg 40%
    Show more